Vorticity
9 9 9 9 9 7 6 6 6 6 7 7 7 7 6 7 7 6 6 7 7 7 7 7 8 7 7 7 6 6 8 11 8 6 7 3 2 4 5 6 5 2 3 4 5 11 13 9 5 7 12 9 1 2 8 10 9 9 8 7 7 6 5 4 2 2 2 1 1 2 3 2 2 2 2 2 2 2 2 2 3 3 3 3 3 3 3 3 4 3 4 3 3 4 4 4 3
8 9 10 9 9 8 6 6 6 6 6 6 6 5 5 5 6 6 6 7 7 6 7 6 7 7 7 7 7 8 8 8 8 8 8 6 4 5 6 5 5 5 3 5 6 8 8 6 6 9 11 9 6 5 9 11 9 8 8 8 7 6 5 4 2 2 2 2 1 2 3 5 5 6 6 5 5 5 4 4 5 5 5 5 4 5 4 4 4 4 4 4 4 5 4 5 4
8 8 10 9 9 9 7 7 6 6 6 6 6 4 4 4 4 5 5 6 7 7 7 5 5 7 7 7 7 10 9 5 6 8 3 2 3 5 6 6 5 6 5 6 9 7 2 2 6 8 6 5 6 6 7 10 10 8 7 7 7 8 6 4 3 3 3 3 3 4 6 7 8 8 9 8 7 8 8 7 7 8 8 8 7 7 7 6 6 6 5 5 6 5 5 5 5
9 8 9 9 9 9 8 8 7 6 6 6 6 5 4 4 4 4 5 5 6 7 8 7 5 7 9 8 8 8 8 5 1 -1 -2 1 5 6 6 6 5 5 6 5 9 11 3 -1 1 4 5 4 4 3 3 5 7 8 9 8 7 10 12 11 10 9 8 7 6 5 6 7 8 8 8 9 9 9 9 8 8 8 8 8 8 8 8 8 7 7 6 6 5 5 5 5 5
7 7 7 8 8 9 9 9 9 8 7 6 6 7 6 5 5 5 5 5 5 7 8 8 7 5 5 6 7 5 1 -1 -0 -0 3 8 8 7 4 3 4 3 5 5 6 8 6 2 -1 1 6 7 4 2 3 4 3 5 9 9 8 9 15 18 15 12 8 7 8 6 4 3 4 7 7 7 7 6 6 5 4 5 6 6 6 6 6 6 5 5 5 4 4 4 4 4 4
4 6 7 9 8 8 8 8 8 8 7 7 8 7 6 6 7 6 6 6 5 7 8 9 8 5 4 4 6 11 12 7 7 7 6 7 7 7 6 3 3 2 3 6 6 4 6 3 -1 2 7 7 6 6 4 4 4 6 6 5 5 5 4 5 4 3 2 2 3 5 6 3 0 3 7 6 5 3 2 2 3 4 4 4 3 3 3 4 4 3 4 4 4 4 4 4 5
3 5 8 11 11 9 8 8 7 7 7 8 9 8 8 8 7 8 7 8 8 8 9 8 7 6 5 5 3 4 7 6 5 3 2 3 5 7 8 6 5 4 2 4 7 6 6 3 0 1 3 4 6 8 5 4 5 7 6 1 0 5 3 -0 1 -1 -1 1 1 2 7 7 2 1 5 5 3 2 2 2 4 5 4 3 2 3 4 4 4 4 4 4 4 5 5 5 5
5 6 6 7 8 8 8 9 8 8 8 9 11 11 9 9 9 9 10 10 10 9 9 8 5 6 5 4 3 -2 -5 -5 -4 -4 -4 -3 -0 2 5 7 7 7 5 4 5 6 8 7 5 -1 -1 5 5 5 6 5 1 -1 5 6 1 3 3 -1 2 1 -1 1 1 2 9 11 4 1 4 4 3 1 2 3 4 5 4 4 4 5 5 5 5 4 4 4 4 4 4 4 4
9 9 7 7 7 6 6 6 7 7 8 10 12 13 10 9 10 9 10 10 9 8 6 6 5 8 9 6 5 3 3 1 -0 -1 -2 -3 -1 2 3 4 5 7 8 7 5 5 6 6 8 3 -1 4 7 8 8 9 4 -2 3 10 10 5 -1 -2 -0 1 1 1 1 6 13 17 10 4 4 4 5 2 1 2 2 2 3 4 5 6 6 6 5 4 4 4 4 4 4 4 4
11 10 8 9 8 7 7 7 7 7 7 7 9 11 10 9 6 3 5 7 9 9 8 7 6 8 10 10 7 2 1 3 6 4 3 3 4 7 7 6 6 7 7 7 7 8 7 3 7 8 2 -1 1 5 6 7 8 6 3 7 15 13 8 7 7 7 8 5 5 7 9 12 10 7 4 2 4 2 1 3 1 1 3 4 5 5 4 4 3 3 4 5 5 6 6 6 6
11 11 10 10 9 9 9 9 11 12 11 9 9 10 10 9 7 4 3 5 7 8 10 10 9 9 5 6 9 8 2 1 6 7 7 9 9 10 10 9 7 7 7 9 9 10 12 8 4 5 9 9 6 5 5 5 4 5 4 4 10 13 10 9 10 10 10 6 4 4 4 6 5 3 3 2 4 4 4 3 2 3 4 6 5 4 3 3 3 4 4 5 6 6 6 6 6
8 8 9 9 9 9 8 9 9 11 12 12 12 12 11 10 9 8 5 6 8 9 10 9 7 8 7 6 7 10 7 2 2 2 3 5 7 8 7 6 7 9 9 10 9 8 11 12 7 3 5 8 10 9 9 12 9 5 5 4 4 5 5 4 6 8 8 6 4 5 5 5 4 3 4 5 7 7 6 5 5 6 6 7 6 7 7 7 7 7 6 6 5 4 4 4 3
4 3 3 5 5 7 7 7 6 6 7 9 11 12 12 11 8 6 6 7 7 8 10 10 7 2 2 5 5 7 8 7 5 3 3 4 7 8 8 6 7 10 8 7 7 5 7 8 8 5 1 -2 -1 -1 -1 5 8 10 11 11 9 8 9 7 7 9 10 11 12 14 12 11 10 7 8 8 8 8 8 8 8 9 8 8 8 7 7 6 6 5 5 5 5 4 3 3 3
4 3 3 4 4 5 5 5 5 5 6 5 6 7 10 13 12 10 9 8 4 2 3 8 11 9 4 2 3 4 6 9 11 12 13 13 11 9 7 6 7 11 12 9 2 2 4 5 6 6 5 4 4 3 1 -0 -0 4 6 7 7 8 8 6 5 3 3 6 8 10 11 13 12 8 6 7 7 6 7 7 7 7 6 6 6 6 5 5 4 4 4 4 4 4 3 3 3
3 3 3 5 5 4 4 4 4 5 4 3 3 4 5 8 12 15 15 13 9 5 3 4 6 9 12 9 7 7 8 11 11 10 9 9 10 10 9 11 12 9 10 10 5 5 5 4 5 5 5 5 7 9 7 6 5 3 2 3 4 4 5 5 5 3 2 3 3 5 7 8 8 6 5 4 4 4 4 4 5 5 5 5 5 5 5 5 5 5 5 5 4 4 5 5 5
3 3 4 4 4 3 3 3 4 4 3 3 5 6 6 5 6 9 13 15 15 12 9 11 9 6 8 8 8 9 8 9 11 10 8 6 7 8 8 12 14 8 5 8 7 7 5 4 8 8 8 8 7 7 6 8 9 8 7 7 7 7 7 6 7 8 8 7 6 6 7 7 8 7 6 5 5 5 5 5 5 5 5 5 5 5 5 6 6 6 7 7 6 6 6 6 6
6 6 6 5 4 3 4 3 3 4 3 3 4 4 5 5 4 4 5 8 11 12 11 12 14 11 10 9 9 10 7 4 8 12 13 13 11 10 10 11 14 15 13 11 7 4 2 2 5 7 10 12 11 10 9 9 9 9 9 8 9 9 9 9 8 8 8 8 8 7 7 8 8 8 7 7 7 6 7 7 7 6 6 6 6 6 5 5 5 5 5 5 6 5 5 5 5
11 11 10 10 8 7 6 5 4 4 4 4 4 3 3 4 6 6 4 4 4 7 9 8 9 10 11 11 12 14 14 10 10 12 13 16 16 14 12 10 10 14 17 15 13 12 9 6 5 4 5 7 9 10 11 10 9 8 8 8 8 9 10 10 9 9 8 8 8 7 7 8 8 8 7 7 7 6 6 6 6 6 5 5 4 4 4 3 3 3 4 4 4 4 4 4 4
12 12 14 13 11 11 9 9 8 7 7 7 6 6 5 5 6 6 7 7 5 5 6 6 4 5 6 7 8 10 12 12 12 13 13 14 15 14 13 12 11 10 13 13 14 17 17 17 16 14 11 8 7 7 8 9 8 8 9 7 6 6 6 7 8 8 7 7 7 6 6 6 6 6 5 5 4 4 4 3 3 3 3 3 3 3 3 3 3 3 4 4 5 5 6 6 7
11 13 15 12 11 12 10 11 12 11 11 10 10 10 8 8 7 8 8 7 10 9 6 5 5 5 5 5 6 5 5 7 8 8 8 9 10 11 11 11 11 10 10 11 13 16 15 15 16 15 14 14 13 11 10 9 8 8 8 7 6 5 5 5 5 5 5 5 5 5 5 4 4 4 3 3 3 3 3 3 3 3 3 4 4 4 5 5 5 6 6 7 8 9 9 10 11
9 11 12 9 9 11 10 11 12 11 12 11 11 11 11 10 9 9 8 9 15 12 7 9 9 7 7 6 6 5 5 5 5 5 4 4 2 3 5 5 6 7 7 7 8 9 8 8 8 9 10 10 11 11 10 9 8 7 6 6 6 6 5 5 4 3 3 4 4 4 4 4 4 4 4 4 4 4 4 4 4 4 5 5 6 6 7 8 8 9 10 10 10 10 10 9 9
8 8 7 6 7 8 8 9 9 9 9 9 10 10 10 10 10 11 10 12 14 9 8 13 13 10 10 8 7 6 5 4 3 4 4 3 3 2 2 2 2 3 3 3 2 2 3 4 4 5 5 6 6 7 7 7 7 6 6 5 5 5 5 4 4 4 4 4 5 5 5 5 5 5 5 5 5 6 6 6 7 7 8 8 8 8 8 9 9 9 9 9 8 8 7 7 6
8 8 6 7 7 7 7 7 8 8 8 9 9 10 11 10 10 11 11 11 9 6 8 12 13 13 13 12 12 10 8 7 5 4 4 4 4 3 3 3 4 4 4 5 5 5 5 5 5 4 4 4 5 5 5 6 6 6 5 5 6 5 5 5 5 5 5 5 5 5 6 6 7 7 8 8 8 9 9 10 10 10 10 10 10 9 9 8 8 7 7 6 6 6 6 6 6
8 9 8 8 8 8 8 8 8 7 9 9 9 11 11 11 10 11 13 11 7 7 9 9 9 9 10 11 11 12 11 11 10 8 7 6 5 5 5 5 6 6 6 7 7 6 6 6 5 5 5 6 6 7 7 6 7 7 6 6 6 6 6 6 6 7 7 7 7 8 8 8 9 9 9 9 10 10 10 10 10 10 9 9 9 8 8 7 7 6 6 6 6 6 6 7 7
6 7 6 6 6 7 6 7 7 6 7 7 7 9 9 9 9 12 15 11 8 11 11 9 8 7 6 7 7 8 8 8 9 9 8 9 9 8 7 6 6 6 7 7 6 6 6 5 5 6 6 6 7 7 6 7 8 8 7 8 8 7 7 8 9 9 10 9 10 10 10 10 9 9 9 9 9 9 9 8 8 8 8 8 8 8 8 8 8 8 8 8 8 7 7 7 7
7 7 7 8 7 7 6 6 7 6 6 6 5 4 5 6 6 8 10 6 6 9 9 8 9 9 8 7 7 7 7 7 7 7 7 8 8 8 7 7 7 6 6 6 5 6 6 6 7 7 7 6 7 7 7 8 9 9 10 10 10 9 9 9 9 9 9 9 8 9 9 9 9 9 8 8 8 7 7 7 7 7 8 8 8 8 9 9 9 9 9 9 9 9 9 9 8
10 10 11 10 10 10 9 9 10 10 9 9 8 7 6 7 6 3 2 2 4 5 5 7 8 9 9 9 10 9 9 10 9 9 9 9 10 10 10 10 10 8 8 9 9 9 8 8 9 9 9 9 9 9 10 10 10 10 9 10 10 10 10 9 9 8 9 8 8 8 8 7 7 6 6 6 6 6 6 7 7 8 8 8 9 9 9 9 9 10 10 10 10 11 11 10 10
9 9 9 9 10 10 10 10 9 9 8 9 9 8 9 12 11 6 4 6 7 6 6 8 9 9 8 8 8 8 9 9 8 9 10 11 11 10 10 10 11 11 12 12 11 11 11 11 10 10 10 10 10 10 9 9 10 10 10 10 10 10 9 8 8 8 8 7 7 7 6 6 6 6 6 7 7 8 8 9 9 9 9 9 9 10 10 10 10 10 10 10 10 10 10 10 10
8 8 9 9 8 7 8 7 7 8 8 9 8 9 15 16 13 9 9 10 8 9 9 10 10 10 10 10 9 9 9 8 7 8 8 7 7 7 8 8 8 8 9 9 9 10 10 10 9 9 9 10 10 10 10 9 9 10 9 8 8 7 7 7 7 6 6 6 6 6 7 7 8 9 9 10 10 10 10 10 10 10 10 10 9 10 9 9 9 9 9 8 8 8 8 8 8
8 8 8 6 6 7 8 7 8 9 9 10 9 11 17 16 11 10 11 11 11 11 11 11 11 11 11 10 10 10 9 10 10 10 9 9 10 10 11 11 10 10 9 10 10 11 11 11 12 12 12 11 10 9 8 7 7 6 6 6 6 6 6 6 6 7 8 8 9 9 10 10 11 11 11 11 11 11 11 11 10 10 10 9 9 8 8 8 7 7 7 7 7 7 7 8 8
7 7 7 6 8 8 8 8 8 9 9 10 9 10 15 14 10 10 10 11 11 11 11 11 10 10 9 9 10 11 12 12 11 11 11 12 11 10 11 10 11 11 12 13 13 12 11 11 11 9 9 8 7 7 6 5 5 5 5 5 6 6 7 7 8 9 9 10 10 11 11 10 10 10 10 10 10 11 11 10 10 9 8 8 8 7 7 7 7 7 7 7 7 7 7 7 7
10 10 10 9 10 10 10 10 10 10 10 11 9 10 13 11 8 8 8 8 9 9 10 10 9 9 9 10 10 10 10 10 10 10 10 9 9 9 9 8 8 9 9 9 8 6 7 6 6 6 6 6 6 6 6 6 6 6 6 6 7 7 8 9 9 8 8 8 9 9 8 8 8 8 8 8 9 10 10 10 9 8 8 8 7 7 7 7 6 6 6 6 7 7 6 6 6
16 15 15 13 13 13 13 12 12 12 12 12 10 10 14 12 9 8 6 6 8 11 11 9 9 9 8 9 8 8 8 7 8 8 7 6 6 7 7 7 7 6 5 5 4 4 4 4 4 5 5 6 6 6 6 6 7 7 7 8 8 9 9 9 8 7 8 8 7 7 6 6 6 7 7 8 8 8 8 7 7 7 8 7 7 7 6 6 6 6 6 6 6 6 6 6 6
18 18 18 17 17 17 16 15 15 15 15 16 13 15 23 22 14 9 5 8 16 21 19 13 10 9 9 8 7 7 6 6 7 6 5 5 6 7 6 6 5 5 5 5 6 6 6 6 6 6 6 7 7 7 7 8 8 9 9 10 9 9 9 9 8 7 7 6 5 6 6 7 8 9 9 9 8 8 7 7 7 8 7 7 6 6 6 7 7 7 7 7 7 8 9 9 9
14 16 16 17 17 15 15 16 15 14 16 16 12 15 23 19 15 14 11 12 19 23 22 18 16 16 16 17 16 14 11 10 8 5 5 6 7 8 7 7 6 7 8 8 8 8 8 9 8 8 9 9 9 9 9 9 10 10 9 9 8 9 9 7 6 5 5 6 7 8 9 10 10 11 11 11 11 11 10 10 9 8 7 7 7 8 8 8 8 9 9 10 11 11 11 11 12
8 9 9 10 12 9 8 10 10 9 11 9 7 11 12 7 10 14 11 10 13 13 14 16 17 18 18 20 21 20 21 20 16 15 16 15 13 11 10 10 10 10 10 9 9 9 9 9 8 9 9 8 8 8 9 8 8 9 8 8 8 8 7 6 7 8 10 11 12 12 12 12 12 12 12 12 12 11 10 8 7 8 8 9 10 11 11 10 11 11 11 11 11 11 10 10 11
8 8 8 7 8 7 6 7 7 6 9 7 7 12 11 6 8 9 9 10 10 9 10 11 10 11 12 13 14 14 17 18 18 20 22 20 18 17 16 15 14 13 13 12 12 11 11 11 11 11 10 9 9 9 9 8 9 9 9 9 8 8 8 11 13 15 15 15 15 15 14 14 13 12 12 11 9 8 7 7 8 9 10 11 11 11 11 10 10 9 9 9 9 9 8 8 8
9 8 8 8 9 8 7 8 8 8 10 9 12 18 15 11 12 13 15 16 15 15 15 13 12 12 11 10 10 9 10 10 11 13 14 15 17 16 16 15 15 15 15 15 16 16 15 15 14 14 13 13 12 11 11 12 12 11 11 12 12 13 15 16 16 15 15 14 14 14 13 11 10 9 8 7 7 7 8 8 9 10 10 9 9 8 8 7 7 7 6 6 6 6 5 5 6
9 9 10 11 11 10 10 11 11 11 10 8 13 18 14 12 13 13 15 14 14 15 15 16 17 17 16 14 14 12 10 9 9 11 11 12 13 12 13 14 13 14 14 15 15 13 12 12 12 12 12 12 12 12 13 14 13 12 13 14 13 13 13 13 11 10 11 10 9 8 8 7 5 5 5 5 6 7 7 7 7 7 6 5 5 4 4 4 4 3 3 3 3 3 4 4 4
11 12 11 11 11 10 10 10 9 8 9 8 9 13 12 10 8 6 9 9 9 9 9 11 11 11 14 15 15 16 14 12 9 8 7 7 8 9 10 11 11 11 11 10 10 10 11 12 12 11 12 13 13 13 13 12 10 10 11 10 9 9 8 8 7 7 7 6 5 5 4 3 3 4 4 4 5 5 4 4 4 3 3 3 2 2 2 2 2 2 2 3 3 3 3 3 3
9 9 8 9 8 7 7 6 6 5 6 7 8 12 9 7 8 6 6 8 9 9 6 6 7 7 10 10 11 15 16 16 13 9 8 7 8 9 9 10 10 10 9 9 9 10 11 11 10 10 10 11 10 10 9 7 7 8 7 7 7 7 6 6 6 6 5 3 4 3 3 3 3 4 4 3 3 3 3 3 3 3 3 3 3 3 3 3 3 4 4 3 4 4 3 3 3
6 5 5 6 5 5 5 5 6 5 4 5 7 11 6 7 12 8 6 11 10 7 5 4 6 7 8 10 13 17 18 20 19 16 14 14 13 13 12 11 10 10 10 10 10 10 10 9 9 8 8 8 8 7 7 7 7 7 6 6 6 6 6 6 7 6 5 5 5 4 4 5 5 5 5 5 4 4 4 4 4 4 4 4 4 4 4 5 5 5 5 4 5 5 4 5 5
4 4 4 5 3 3 3 3 5 4 5 5 5 8 6 9 11 2 4 11 7 5 6 6 8 9 10 14 20 23 20 18 20 19 17 16 15 15 14 13 12 11 11 11 10 10 9 9 8 8 8 8 8 7 7 6 6 6 6 6 5 6 6 7 8 7 6 7 7 7 8 7 7 7 6 6 6 6 6 5 6 6 5 6 6 6 6 7 7 6 6 6 6 7 6 7 7
3 3 3 3 3 3 1 2 2 2 5 5 2 3 5 10 11 5 5 6 6 9 10 9 10 9 10 14 20 24 18 10 8 10 12 12 12 12 12 12 11 10 10 10 10 10 10 10 9 9 9 10 10 9 9 9 9 9 8 8 8 8 8 7 7 7 7 8 8 9 9 9 9 9 8 8 8 7 7 7 8 7 7 8 7 8 8 8 7 7 8 7 8 8 7 8 8
3 2 2 2 2 2 2 2 1 1 4 3 1 1 4 9 9 6 4 0 6 12 8 7 8 5 5 7 11 16 13 6 -0 -3 -1 2 4 6 6 7 7 7 7 7 8 8 9 9 10 10 10 10 10 10 10 11 11 11 10 10 11 11 10 9 8 8 8 8 8 8 8 8 8 8 8 8 7 7 8 8 8 8 8 8 7 7 7 7 7 7 7 7 7 7 7 8 8
3 1 1 1 1 2 3 1 -0 2 3 1 1 0 4 8 2 1 3 -1 3 9 6 5 4 3 4 5 3 3 5 7 4 -3 -6 -5 -2 2 4 5 4 3 4 5 6 6 7 7 8 8 7 7 7 8 8 8 8 8 9 9 9 9 9 9 8 9 9 8 8 7 7 6 6 6 6 7 7 7 8 8 8 7 7 7 7 7 6 7 7 6 6 6 6 6 7 7 7
2 1 1 1 1 2 2 1 1 2 0 -0 3 0 2 5 -2 -2 1 -3 -0 8 9 4 0 2 5 5 1 -2 2 9 10 6 2 0 1 3 5 5 4 3 3 4 4 4 5 5 5 6 6 5 5 6 6 6 6 7 8 7 7 6 6 7 7 8 9 8 9 8 7 7 6 6 6 6 7 7 7 7 6 6 6 6 6 6 6 6 5 5 5 5 5 6 6 6 6
2 0 1 1 1 2 1 0 2 1 -1 0 3 -0 1 1 -2 -2 -1 -3 1 7 9 3 -1 4 5 3 -2 -3 7 12 9 7 5 3 2 2 3 4 4 3 3 3 3 3 3 3 3 4 4 4 4 4 4 5 5 6 7 6 5 6 5 5 6 6 7 8 8 8 7 8 7 7 7 7 8 7 7 6 6 6 6 6 6 6 6 5 5 5 4 4 5 4 5 5 5
2 0 1 2 2 1 -0 1 2 0 -0 2 2 1 1 0 1 3 -1 -2 2 5 9 5 2 5 2 -2 -3 1 12 13 5 3 4 5 4 3 3 3 4 3 2 3 3 3 2 2 2 2 2 2 2 3 3 3 3 4 4 4 4 4 4 5 5 5 6 6 6 6 5 6 6 7 7 7 8 7 7 7 7 8 7 7 7 7 7 6 6 5 5 5 4 4 4 4 4
1 1 2 3 3 1 -0 2 1 -0 0 2 2 -1 -1 -0 4 4 -2 0 5 6 8 5 4 4 -3 -4 1 5 9 4 -1 -1 1 4 5 4 4 3 4 3 2 3 4 4 3 2 2 3 3 2 1 2 3 3 3 3 3 3 3 3 3 4 4 5 5 5 5 5 4 4 5 5 6 6 6 6 6 7 7 7 7 7 7 7 7 7 7 6 6 5 4 4 5 4 5
2 4 2 1 1 0 0 1 0 1 1 1 0 -1 -1 1 3 3 1 5 6 3 3 2 1 0 -4 -1 6 8 6 2 1 3 2 2 2 2 4 4 5 3 1 2 3 5 6 4 3 4 4 2 1 2 2 2 2 3 4 4 5 4 3 2 2 3 4 4 4 4 4 4 5 5 5 5 5 4 5 5 5 6 7 7 7 7 8 8 7 7 6 5 5 5 5 5 5
2 3 1 -0 1 2 2 2 1 2 1 -0 1 2 1 2 3 4 4 3 1 0 1 0 -0 1 2 7 12 13 10 6 5 5 3 2 1 -0 -0 0 -0 -2 -1 2 4 5 6 5 4 4 5 4 4 3 2 2 1 1 3 4 5 6 6 4 3 3 3 3 2 3 3 4 4 4 5 5 5 5 4 4 4 5 5 5 6 6 7 8 8 8 7 6 5 5 5 5 5
1 2 2 2 3 4 4 3 3 4 1 1 3 2 2 2 2 2 0 -1 2 4 3 2 2 5 9 15 19 18 13 8 5 3 0 -1 -2 -4 -3 -3 -4 -3 1 6 8 7 6 5 5 5 7 7 6 6 5 4 2 2 3 4 5 7 8 7 5 4 3 3 3 3 4 4 4 4 4 4 4 4 5 4 4 4 4 4 5 5 6 7 8 8 8 7 6 5 4 4 4
2 3 3 4 5 5 5 6 7 7 3 1 2 2 3 3 1 -1 -1 1 4 4 3 3 5 10 15 17 16 13 9 6 4 2 2 1 -0 -0 1 1 0 1 3 4 5 6 6 6 6 6 7 7 7 7 7 6 4 2 2 3 4 6 9 9 8 5 4 3 3 3 4 4 4 4 3 3 4 4 4 4 4 4 4 4 3 4 5 6 7 7 7 7 7 6 5 5 5
3 3 4 6 7 7 8 8 8 7 5 4 4 4 4 2 -0 1 2 2 1 -0 2 6 10 14 15 11 9 8 6 4 4 5 5 5 6 6 5 4 3 3 3 2 3 4 5 5 6 5 5 6 6 7 9 8 5 3 3 4 3 4 6 8 9 7 5 4 4 4 4 5 5 5 4 3 4 4 5 5 5 4 4 4 4 4 5 6 8 8 8 8 8 7 6 6 6
5 6 7 7 6 9 8 4 3 6 6 5 5 5 4 2 2 3 2 2 2 3 6 10 10 8 5 4 6 7 8 8 7 8 8 8 8 7 6 5 5 5 4 4 4 4 4 5 6 6 6 7 9 10 9 7 5 5 5 6 5 4 6 9 10 9 7 5 5 4 4 5 5 5 4 4 4 5 6 6 5 4 4 5 5 4 5 7 9 9 9 9 8 8 7 6 6
4 5 5 6 8 9 6 1 2 4 4 5 7 7 6 4 5 7 6 7 8 8 9 7 5 3 3 5 5 7 14 18 15 12 12 12 12 10 9 8 7 7 6 6 6 5 6 6 7 9 10 12 12 10 5 2 2 4 6 6 5 3 5 8 10 9 7 6 4 3 3 4 4 4 4 4 4 6 7 6 4 3 3 5 6 6 6 8 8 8 8 8 8 8 7 7 7
4 5 5 7 6 5 5 3 3 4 3 4 7 5 3 5 11 13 12 13 12 11 10 7 4 4 5 6 5 6 11 11 4 3 6 10 12 12 11 10 9 9 8 8 8 8 9 11 13 13 13 11 8 5 2 2 3 5 6 4 2 2 6 9 10 9 8 7 5 3 3 3 3 3 3 3 5 7 7 5 4 2 3 6 7 7 7 6 6 6 7 8 9 8 7 7 7
Height
5803 5803 5803 5803 5804 5804 5803 5802 5801 5801 5800 5800 5800 5799 5800 5799 5799 5799 5799 5799 5799 5799 5799 5798 5799 5799 5799 5799 5800 5799 5799 5800 5800 5800 5801 5802 5802 5801 5801 5801 5801 5801 5801 5801 5801 5802 5803 5804 5804 5804 5804 5805 5805 5805 5806 5807 5808 5808 5809 5810 5811 5811 5812 5812 5812 5813 5813 5814 5815 5816 5816 5817 5817 5818 5819 5819 5820 5819 5820 5821 5820 5821 5821 5822 5823 5823 5824 5824 5825 5826 5826 5826 5826 5826 5826 5826 5827
5802 5801 5801 5801 5802 5801 5800 5800 5798 5799 5799 5798 5799 5797 5797 5797 5797 5797 5796 5797 5797 5797 5797 5796 5796 5796 5797 5797 5797 5797 5797 5798 5798 5799 5799 5799 5799 5799 5799 5799 5799 5799 5799 5799 5799 5800 5800 5801 5802 5802 5802 5802 5803 5803 5804 5805 5806 5806 5807 5808 5808 5809 5810 5810 5810 5810 5811 5812 5812 5813 5814 5814 5814 5815 5815 5816 5816 5816 5817 5817 5818 5818 5818 5819 5820 5820 5821 5821 5822 5822 5823 5823 5823 5823 5824 5824 5824
5800 5800 5800 5800 5799 5799 5798 5798 5796 5797 5797 5797 5797 5795 5795 5795 5794 5795 5795 5795 5794 5795 5795 5794 5794 5794 5795 5795 5795 5794 5795 5796 5796 5797 5797 5797 5797 5797 5797 5797 5797 5797 5796 5797 5797 5798 5798 5799 5800 5800 5801 5800 5800 5802 5802 5803 5803 5803 5804 5805 5806 5806 5807 5808 5808 5808 5808 5809 5809 5810 5811 5811 5811 5811 5812 5813 5813 5814 5814 5814 5815 5815 5815 5816 5817 5817 5818 5818 5819 5819 5819 5820 5820 5820 5820 5821 5821
5799 5798 5798 5798 5797 5797 5796 5796 5795 5795 5795 5794 5794 5793 5792 5792 5792 5793 5793 5792 5792 5792 5792 5792 5792 5792 5792 5793 5793 5792 5793 5794 5794 5794 5794 5795 5795 5795 5795 5795 5795 5795 5794 5794 5795 5796 5796 5797 5797 5798 5798 5798 5798 5800 5800 5800 5800 5800 5801 5802 5803 5804 5804 5805 5805 5806 5806 5806 5807 5807 5808 5808 5808 5808 5808 5809 5810 5811 5811 5812 5812 5812 5813 5813 5814 5814 5815 5815 5815 5816 5816 5816 5817 5817 5817 5817 5818
5797 5797 5796 5796 5795 5795 5794 5794 5794 5793 5793 5792 5792 5792 5790 5789 5790 5790 5790 5790 5790 5790 5790 5790 5790 5790 5790 5791 5791 5791 5791 5791 5791 5791 5792 5793 5793 5793 5793 5792 5792 5793 5792 5792 5793 5793 5794 5794 5794 5795 5796 5796 5796 5797 5798 5798 5798 5798 5799 5799 5800 5801 5802 5802 5802 5803 5803 5803 5804 5805 5805 5805 5806 5806 5806 5807 5807 5808 5809 5809 5810 5810 5810 5810 5811 5811 5812 5812 5812 5812 5813 5813 5813 5814 5814 5814 5815
5796 5795 5794 5793 5793 5792 5792 5792 5791 5791 5790 5789 5789 5790 5788 5787 5788 5787 5787 5787 5787 5787 5788 5787 5787 5787 5788 5788 5788 5788 5788 5788 5789 5789 5789 5790 5790 5790 5790 5790 5790 5790 5790 5790 5790 5790 5791 5791 5791 5793 5794 5794 5793 5794 5795 5795 5795 5795 5796 5797 5797 5798 5799 5799 5799 5800 5800 5800 5801 5801 5802 5802 5803 5803 5803 5804 5804 5805 5806 5807 5807 5807 5807 5807 5808 5808 5808 5809 5809 5809 5810 5810 5810 5810 5811 5811 5811
5794 5793 5792 5791 5790 5790 5789 5789 5789 5788 5788 5787 5787 5786 5786 5785 5785 5785 5785 5785 5785 5785 5785 5785 5785 5784 5785 5786 5785 5785 5785 5785 5786 5787 5787 5787 5787 5787 5787 5787 5787 5787 5787 5788 5788 5788 5788 5788 5789 5790 5792 5792 5791 5791 5792 5792 5793 5792 5793 5794 5794 5795 5796 5796 5796 5796 5797 5797 5797 5798 5799 5799 5800 5800 5801 5801 5801 5802 5803 5804 5804 5804 5804 5804 5805 5805 5805 5806 5806 5806 5807 5807 5807 5807 5808 5808 5808
5792 5791 5790 5789 5788 5788 5787 5787 5786 5786 5785 5784 5784 5783 5783 5783 5782 5782 5782 5782 5782 5782 5782 5782 5782 5782 5783 5783 5782 5782 5783 5783 5783 5784 5784 5784 5784 5784 5784 5785 5785 5785 5785 5785 5785 5785 5785 5785 5786 5787 5788 5789 5788 5788 5788 5789 5789 5789 5789 5790 5791 5792 5792 5793 5793 5793 5793 5794 5794 5795 5795 5796 5797 5797 5798 5798 5798 5798 5799 5800 5801 5801 5801 5801 5802 5802 5802 5803 5803 5803 5803 5804 5804 5804 5804 5804 5805
5789 5789 5788 5787 5786 5786 5785 5785 5784 5783 5783 5782 5781 5781 5780 5780 5780 5779 5779 5779 5779 5779 5780 5780 5780 5780 5780 5780 5779 5780 5780 5780 5780 5781 5781 5781 5781 5781 5782 5782 5782 5782 5782 5782 5782 5782 5782 5783 5783 5784 5785 5785 5785 5785 5785 5785 5786 5786 5786 5787 5787 5788 5788 5788 5789 5789 5790 5790 5791 5791 5792 5792 5793 5794 5794 5795 5794 5795 5795 5796 5797 5797 5797 5798 5798 5799 5799 5799 5799 5800 5800 5800 5800 5800 5801 5801 5801
5787 5787 5786 5785 5784 5784 5783 5782 5782 5781 5781 5780 5779 5778 5778 5778 5777 5777 5777 5776 5776 5776 5776 5777 5777 5777 5777 5776 5777 5777 5777 5778 5778 5778 5777 5778 5778 5778 5778 5778 5779 5779 5779 5779 5779 5779 5779 5780 5779 5780 5781 5782 5782 5782 5782 5782 5783 5782 5782 5783 5783 5784 5784 5785 5785 5786 5787 5787 5787 5788 5788 5789 5789 5790 5791 5791 5791 5791 5792 5793 5793 5794 5794 5794 5795 5795 5795 5795 5796 5796 5797 5797 5797 5797 5797 5797 5797
5785 5785 5784 5783 5782 5782 5781 5780 5779 5778 5778 5777 5777 5776 5776 5775 5775 5775 5774 5774 5774 5773 5773 5773 5773 5773 5773 5773 5774 5774 5774 5775 5775 5774 5774 5775 5775 5775 5775 5775 5775 5775 5776 5776 5776 5776 5776 5777 5777 5777 5778 5779 5779 5778 5779 5779 5780 5780 5779 5780 5779 5780 5780 5781 5782 5782 5783 5783 5784 5784 5784 5785 5786 5786 5787 5787 5788 5788 5789 5789 5789 5790 5790 5790 5791 5791 5791 5792 5792 5792 5793 5793 5793 5793 5793 5793 5794
5783 5783 5782 5781 5780 5779 5779 5778 5777 5776 5775 5774 5774 5773 5773 5773 5772 5772 5772 5772 5771 5771 5770 5770 5770 5770 5770 5770 5770 5771 5771 5772 5772 5772 5771 5772 5771 5771 5771 5772 5772 5772 5772 5772 5773 5772 5773 5773 5774 5774 5774 5775 5775 5775 5776 5776 5776 5776 5776 5776 5776 5776 5776 5777 5778 5778 5779 5779 5779 5780 5780 5781 5782 5782 5783 5783 5784 5784 5785 5785 5786 5786 5786 5786 5787 5787 5787 5788 5788 5788 5789 5789 5789 5789 5789 5789 5789
5782 5781 5780 5780 5779 5777 5777 5776 5774 5774 5772 5772 5772 5771 5770 5770 5769 5769 5769 5769 5768 5768 5768 5768 5768 5767 5767 5767 5767 5767 5767 5768 5769 5769 5768 5768 5768 5768 5768 5768 5768 5769 5769 5769 5769 5769 5770 5770 5771 5771 5771 5772 5772 5772 5772 5772 5773 5773 5773 5773 5772 5772 5772 5773 5774 5774 5775 5775 5775 5776 5776 5777 5777 5778 5779 5779 5779 5780 5781 5781 5782 5782 5782 5782 5782 5783 5783 5784 5784 5784 5785 5785 5785 5785 5785 5785 5785
5780 5779 5778 5778 5777 5775 5774 5774 5772 5772 5770 5769 5769 5769 5768 5767 5767 5766 5766 5766 5766 5766 5765 5765 5765 5765 5764 5764 5764 5763 5764 5764 5764 5765 5765 5764 5764 5764 5765 5765 5765 5765 5765 5766 5766 5766 5766 5767 5767 5768 5768 5768 5768 5769 5769 5769 5769 5769 5769 5769 5769 5769 5769 5769 5770 5770 5771 5772 5772 5772 5772 5773 5773 5774 5774 5775 5775 5776 5776 5777 5777 5778 5778 5778 5778 5779 5779 5779 5779 5780 5780 5780 5780 5780 5781 5781 5781
5778 5777 5776 5775 5775 5773 5772 5771 5771 5770 5768 5766 5766 5766 5766 5765 5764 5764 5763 5763 5763 5763 5763 5762 5762 5762 5761 5761 5760 5760 5761 5761 5760 5760 5760 5761 5761 5761 5761 5761 5761 5761 5761 5762 5763 5763 5763 5763 5763 5764 5764 5764 5764 5765 5765 5765 5765 5765 5765 5765 5765 5766 5766 5766 5766 5766 5767 5767 5768 5769 5769 5769 5769 5770 5770 5770 5771 5772 5772 5772 5773 5773 5774 5774 5774 5774 5774 5774 5775 5775 5775 5776 5776 5776 5776 5776 5776
5776 5775 5774 5773 5772 5771 5769 5769 5768 5768 5767 5765 5764 5763 5763 5763 5762 5761 5761 5761 5760 5759 5760 5759 5759 5759 5758 5757 5757 5757 5758 5757 5757 5757 5757 5757 5757 5757 5757 5758 5758 5758 5758 5758 5759 5759 5759 5759 5759 5760 5760 5760 5761 5761 5761 5761 5761 5761 5761 5761 5761 5762 5762 5762 5762 5763 5763 5762 5764 5765 5765 5765 5765 5766 5766 5766 5767 5767 5767 5768 5768 5769 5769 5769 5769 5769 5769 5770 5770 5770 5770 5770 5771 5771 5771 5771 5771
5773 5772 5771 5771 5770 5768 5767 5766 5765 5765 5764 5763 5762 5761 5760 5760 5759 5759 5758 5758 5757 5757 5756 5756 5755 5755 5754 5753 5753 5754 5755 5755 5754 5754 5754 5754 5754 5754 5754 5754 5754 5754 5754 5754 5755 5755 5755 5756 5755 5756 5756 5757 5757 5757 5757 5757 5757 5757 5757 5757 5757 5758 5758 5758 5758 5758 5758 5758 5759 5760 5760 5761 5761 5761 5761 5761 5762 5762 5763 5763 5763 5764 5764 5764 5764 5765 5765 5765 5765 5765 5765 5765 5765 5765 5765 5766 5766
5770 5769 5768 5768 5767 5765 5764 5763 5762 5762 5761 5761 5760 5759 5758 5757 5756 5756 5755 5755 5755 5754 5754 5753 5752 5751 5750 5750 5750 5751 5751 5752 5751 5751 5751 5751 5751 5751 5751 5751 5751 5751 5751 5751 5751 5751 5751 5752 5752 5752 5753 5753 5753 5753 5753 5753 5753 5753 5753 5753 5753 5754 5754 5754 5754 5754 5754 5754 5755 5755 5755 5756 5757 5757 5757 5757 5757 5757 5758 5758 5758 5758 5759 5759 5759 5759 5759 5759 5759 5760 5760 5760 5760 5760 5760 5760 5760
5767 5765 5765 5765 5763 5762 5761 5760 5759 5759 5758 5757 5757 5756 5756 5754 5753 5753 5753 5752 5752 5752 5750 5749 5749 5748 5747 5747 5747 5747 5747 5748 5748 5748 5748 5748 5748 5748 5747 5747 5747 5747 5747 5747 5747 5747 5748 5748 5748 5749 5749 5749 5749 5750 5750 5750 5749 5749 5749 5749 5749 5749 5750 5750 5750 5750 5750 5750 5751 5751 5751 5751 5752 5752 5753 5753 5753 5753 5753 5753 5753 5753 5753 5754 5754 5754 5754 5754 5754 5754 5754 5754 5754 5754 5754 5754 5754
5764 5763 5763 5761 5760 5759 5758 5757 5756 5756 5755 5755 5754 5753 5753 5751 5750 5750 5749 5749 5749 5749 5746 5745 5745 5745 5744 5743 5743 5743 5743 5744 5745 5745 5745 5745 5744 5744 5744 5744 5744 5744 5744 5744 5744 5744 5744 5744 5744 5744 5745 5745 5745 5746 5746 5746 5746 5745 5745 5745 5745 5745 5745 5745 5745 5745 5745 5746 5746 5746 5747 5747 5747 5747 5748 5748 5748 5748 5748 5748 5748 5748 5748 5748 5748 5748 5748 5748 5748 5748 5748 5748 5748 5748 5748 5748 5748
5761 5761 5760 5758 5757 5756 5755 5754 5753 5753 5752 5752 5751 5750 5750 5748 5747 5747 5746 5746 5746 5745 5742 5741 5742 5741 5740 5740 5740 5739 5740 5740 5740 5741 5741 5741 5741 5741 5741 5741 5741 5740 5740 5741 5741 5740 5740 5740 5740 5740 5740 5741 5741 5742 5742 5742 5742 5742 5742 5741 5741 5741 5741 5741 5741 5741 5741 5741 5741 5742 5742 5742 5742 5742 5742 5743 5742 5742 5742 5742 5742 5742 5742 5742 5742 5742 5742 5742 5742 5742 5742 5742 5742 5742 5742 5742 5742
5759 5758 5757 5755 5754 5753 5752 5751 5750 5750 5749 5749 5748 5747 5747 5745 5745 5744 5743 5743 5743 5740 5738 5738 5738 5737 5737 5737 5736 5736 5736 5736 5736 5737 5737 5737 5737 5737 5738 5738 5737 5737 5738 5738 5737 5737 5737 5736 5736 5735 5736 5737 5737 5738 5738 5739 5738 5738 5737 5737 5737 5737 5736 5736 5736 5736 5736 5736 5737 5737 5737 5737 5737 5737 5737 5737 5737 5737 5737 5736 5736 5736 5736 5736 5736 5736 5736 5736 5736 5736 5736 5736 5736 5736 5736 5736 5736
5757 5755 5754 5752 5751 5750 5749 5748 5747 5747 5746 5746 5745 5744 5744 5743 5742 5741 5741 5741 5738 5736 5736 5736 5735 5734 5733 5733 5733 5733 5732 5732 5732 5732 5733 5733 5733 5734 5734 5734 5734 5734 5734 5734 5734 5734 5733 5733 5732 5731 5731 5732 5733 5733 5734 5734 5734 5733 5733 5733 5732 5732 5732 5731 5731 5731 5731 5731 5731 5731 5731 5731 5731 5731 5731 5731 5731 5731 5731 5731 5730 5730 5730 5730 5730 5730 5730 5730 5730 5730 5730 5730 5730 5730 5730 5730 5730
5754 5753 5751 5750 5749 5748 5747 5746 5745 5744 5743 5742 5742 5741 5741 5740 5739 5739 5739 5737 5734 5733 5733 5733 5732 5731 5730 5729 5729 5729 5728 5728 5729 5729 5729 5729 5729 5729 5730 5730 5730 5730 5730 5730 5730 5729 5729 5728 5728 5727 5726 5726 5727 5728 5729 5729 5729 5728 5728 5728 5727 5727 5727 5726 5726 5726 5726 5726 5726 5726 5726 5726 5726 5726 5726 5725 5726 5725 5725 5725 5725 5725 5725 5725 5725 5725 5725 5724 5724 5724 5724 5724 5724 5724 5724 5724 5724
5752 5751 5750 5748 5747 5746 5745 5744 5742 5741 5740 5739 5739 5738 5737 5736 5736 5736 5736 5733 5730 5730 5730 5730 5729 5728 5727 5726 5725 5725 5725 5725 5725 5725 5725 5725 5725 5725 5725 5726 5726 5726 5726 5725 5725 5725 5724 5724 5723 5723 5722 5721 5722 5723 5723 5724 5723 5723 5723 5722 5722 5722 5721 5721 5721 5721 5721 5721 5721 5721 5720 5720 5720 5720 5720 5720 5720 5720 5720 5720 5720 5720 5719 5719 5719 5719 5719 5719 5718 5718 5718 5718 5718 5718 5718 5718 5718
5750 5749 5748 5746 5745 5744 5743 5741 5740 5739 5737 5736 5736 5735 5734 5733 5733 5734 5732 5728 5727 5727 5727 5726 5725 5724 5724 5723 5722 5721 5721 5721 5721 5721 5721 5720 5721 5721 5722 5722 5722 5722 5721 5720 5720 5720 5720 5719 5719 5718 5718 5717 5716 5717 5718 5718 5718 5718 5717 5717 5717 5716 5716 5716 5717 5716 5716 5716 5716 5715 5715 5715 5715 5715 5715 5715 5715 5714 5715 5714 5714 5714 5714 5714 5714 5713 5713 5713 5713 5712 5712 5712 5712 5712 5712 5712 5712
5747 5746 5745 5744 5743 5741 5740 5739 5737 5736 5735 5733 5733 5732 5731 5730 5730 5730 5727 5724 5724 5724 5723 5722 5722 5721 5720 5719 5719 5718 5717 5717 5716 5716 5716 5716 5717 5717 5717 5716 5717 5717 5716 5716 5716 5715 5715 5715 5715 5714 5713 5712 5712 5712 5712 5713 5713 5713 5712 5712 5712 5712 5711 5712 5711 5711 5711 5711 5710 5710 5710 5710 5710 5710 5710 5710 5709 5709 5709 5709 5709 5708 5708 5708 5708 5707 5707 5707 5707 5707 5706 5706 5706 5706 5706 5706 5706
5744 5743 5742 5741 5740 5739 5737 5736 5734 5733 5732 5730 5729 5729 5729 5727 5727 5725 5722 5721 5721 5720 5719 5719 5718 5717 5716 5716 5715 5714 5714 5713 5712 5712 5712 5712 5712 5711 5711 5711 5712 5712 5712 5712 5711 5711 5711 5711 5710 5709 5708 5708 5708 5707 5707 5708 5708 5707 5707 5707 5707 5706 5706 5707 5706 5706 5706 5706 5706 5706 5705 5705 5705 5705 5704 5704 5704 5704 5703 5703 5703 5702 5702 5702 5702 5702 5702 5701 5701 5701 5701 5701 5700 5700 5700 5700 5700
5741 5740 5739 5738 5737 5736 5734 5733 5731 5730 5728 5727 5725 5726 5727 5725 5722 5720 5718 5718 5718 5716 5716 5715 5714 5714 5713 5712 5711 5711 5710 5709 5708 5708 5708 5708 5707 5706 5706 5707 5707 5707 5707 5707 5707 5707 5707 5706 5705 5704 5704 5704 5703 5703 5702 5702 5702 5702 5702 5702 5701 5701 5702 5702 5702 5701 5701 5701 5701 5700 5700 5700 5700 5699 5699 5699 5699 5698 5698 5697 5697 5697 5697 5697 5696 5696 5696 5696 5695 5695 5695 5695 5694 5694 5694 5694 5694
5738 5737 5737 5736 5735 5733 5731 5729 5728 5727 5725 5724 5722 5722 5725 5722 5717 5716 5715 5715 5714 5713 5713 5712 5711 5710 5709 5708 5708 5707 5706 5705 5705 5704 5703 5703 5703 5702 5702 5702 5702 5702 5702 5702 5702 5702 5702 5701 5700 5700 5700 5699 5699 5698 5698 5697 5697 5697 5697 5697 5697 5697 5697 5697 5697 5696 5696 5696 5696 5695 5695 5694 5694 5694 5694 5694 5693 5693 5692 5692 5692 5691 5691 5691 5691 5691 5690 5690 5690 5690 5689 5689 5689 5689 5688 5688 5688
5736 5735 5734 5733 5732 5731 5729 5726 5725 5724 5722 5721 5718 5718 5722 5720 5714 5712 5712 5711 5710 5710 5709 5708 5707 5706 5705 5705 5704 5704 5702 5702 5701 5700 5699 5699 5699 5698 5698 5698 5697 5697 5698 5698 5698 5698 5697 5697 5696 5696 5695 5694 5694 5694 5693 5693 5693 5693 5693 5692 5692 5692 5692 5691 5691 5691 5691 5690 5690 5690 5689 5689 5689 5689 5689 5688 5688 5688 5687 5687 5686 5686 5686 5686 5686 5685 5685 5684 5684 5684 5684 5683 5683 5683 5683 5682 5682
5733 5732 5731 5730 5729 5728 5726 5724 5722 5721 5719 5719 5716 5714 5718 5717 5712 5709 5708 5707 5706 5706 5706 5705 5704 5703 5702 5701 5701 5700 5699 5698 5697 5697 5696 5695 5694 5694 5694 5694 5693 5693 5693 5693 5693 5693 5693 5693 5692 5691 5691 5690 5690 5689 5689 5688 5688 5688 5688 5687 5687 5687 5687 5687 5686 5686 5685 5685 5685 5685 5684 5683 5684 5683 5683 5683 5683 5682 5682 5681 5680 5680 5681 5680 5680 5679 5679 5678 5678 5678 5678 5678 5677 5677 5677 5676 5676
5731 5729 5729 5727 5726 5725 5724 5722 5720 5719 5717 5716 5713 5711 5714 5714 5710 5707 5704 5703 5702 5703 5703 5701 5700 5699 5698 5698 5697 5697 5696 5695 5694 5694 5692 5691 5690 5690 5690 5690 5689 5689 5689 5688 5688 5688 5688 5688 5688 5687 5686 5686 5685 5684 5684 5684 5683 5683 5683 5683 5682 5682 5682 5681 5681 5680 5680 5680 5680 5679 5678 5678 5678 5678 5678 5678 5677 5676 5676 5675 5674 5674 5674 5674 5674 5673 5673 5672 5672 5672 5672 5672 5671 5671 5670 5670 5669
5729 5727 5726 5725 5724 5722 5721 5720 5718 5716 5715 5714 5711 5709 5711 5710 5707 5704 5701 5699 5700 5701 5700 5698 5696 5695 5695 5694 5694 5693 5692 5691 5691 5690 5688 5687 5687 5687 5686 5686 5685 5685 5684 5684 5684 5684 5684 5683 5683 5683 5682 5681 5680 5680 5679 5679 5678 5678 5678 5678 5677 5677 5677 5676 5675 5675 5675 5674 5674 5673 5673 5673 5672 5672 5672 5672 5671 5671 5670 5669 5669 5668 5668 5668 5667 5667 5667 5667 5666 5666 5666 5665 5665 5665 5664 5663 5662
5728 5726 5725 5724 5722 5720 5719 5718 5716 5714 5713 5712 5709 5709 5709 5707 5704 5702 5699 5698 5698 5698 5697 5695 5693 5692 5691 5691 5690 5689 5688 5688 5687 5685 5684 5684 5684 5683 5682 5681 5681 5680 5680 5680 5679 5679 5678 5678 5678 5678 5677 5676 5675 5675 5674 5674 5674 5674 5673 5672 5672 5672 5671 5670 5670 5669 5669 5669 5668 5668 5667 5667 5667 5666 5666 5666 5665 5665 5664 5663 5662 5662 5662 5662 5662 5661 5661 5660 5660 5659 5659 5659 5658 5658 5657 5656 5655
5726 5725 5723 5722 5721 5719 5717 5716 5714 5713 5712 5710 5707 5707 5706 5704 5702 5701 5698 5697 5696 5695 5694 5693 5691 5690 5688 5687 5687 5686 5685 5684 5683 5681 5681 5680 5680 5679 5678 5677 5676 5676 5676 5675 5674 5674 5673 5673 5673 5673 5672 5671 5670 5670 5670 5669 5669 5668 5668 5667 5667 5666 5665 5664 5664 5664 5664 5663 5663 5662 5662 5661 5661 5660 5660 5659 5659 5658 5657 5656 5656 5656 5656 5656 5656 5655 5654 5654 5653 5653 5652 5652 5652 5651 5650 5649 5649
5725 5724 5722 5721 5720 5718 5715 5714 5713 5711 5710 5708 5706 5706 5703 5700 5699 5699 5697 5695 5694 5692 5691 5690 5688 5687 5686 5685 5683 5682 5681 5681 5679 5678 5678 5677 5676 5675 5674 5673 5672 5672 5671 5670 5670 5669 5668 5667 5667 5667 5667 5666 5665 5665 5664 5664 5663 5663 5662 5662 5661 5660 5659 5659 5659 5659 5658 5657 5657 5656 5656 5656 5655 5655 5654 5653 5652 5651 5650 5650 5650 5650 5650 5650 5649 5648 5648 5647 5647 5646 5646 5645 5645 5645 5644 5643 5642
5724 5723 5721 5720 5719 5717 5714 5713 5711 5709 5708 5706 5704 5704 5701 5697 5696 5696 5695 5693 5691 5690 5689 5687 5685 5684 5683 5681 5680 5679 5678 5677 5676 5675 5674 5673 5672 5671 5670 5669 5668 5667 5666 5666 5665 5664 5663 5663 5662 5662 5661 5660 5660 5659 5658 5658 5658 5657 5656 5656 5655 5654 5654 5654 5654 5653 5652 5652 5652 5651 5651 5650 5649 5648 5647 5646 5646 5645 5645 5645 5644 5644 5644 5643 5643 5642 5641 5641 5640 5640 5639 5639 5638 5638 5637 5636 5636
5723 5722 5720 5718 5717 5716 5713 5711 5709 5707 5705 5704 5702 5702 5699 5695 5693 5693 5693 5691 5689 5688 5686 5684 5683 5682 5680 5678 5677 5675 5674 5673 5672 5672 5671 5670 5669 5667 5667 5666 5664 5664 5663 5662 5661 5660 5659 5658 5658 5657 5656 5655 5655 5654 5654 5653 5652 5651 5650 5650 5650 5650 5650 5650 5649 5648 5647 5647 5647 5646 5645 5643 5643 5642 5641 5641 5641 5640 5640 5640 5639 5638 5638 5637 5636 5636 5635 5635 5634 5633 5632 5631 5631 5631 5630 5629 5629
5722 5720 5719 5717 5715 5714 5712 5710 5707 5705 5703 5701 5700 5700 5698 5694 5691 5691 5691 5689 5687 5685 5684 5682 5681 5679 5677 5675 5674 5672 5671 5669 5668 5667 5666 5666 5665 5664 5663 5662 5661 5660 5659 5658 5657 5656 5655 5655 5654 5652 5651 5651 5650 5650 5649 5648 5647 5647 5646 5646 5646 5645 5645 5645 5644 5643 5643 5642 5641 5639 5638 5637 5636 5636 5636 5636 5636 5635 5635 5634 5633 5632 5632 5631 5630 5630 5629 5628 5627 5626 5625 5624 5624 5624 5623 5622 5621
5721 5719 5717 5716 5714 5712 5710 5708 5706 5704 5702 5699 5697 5698 5699 5695 5689 5688 5689 5686 5685 5683 5681 5680 5678 5676 5675 5673 5671 5670 5668 5666 5665 5663 5662 5661 5661 5660 5659 5658 5657 5656 5655 5654 5653 5652 5652 5651 5650 5649 5648 5647 5646 5646 5645 5644 5643 5643 5642 5642 5641 5641 5640 5640 5639 5638 5637 5636 5635 5633 5632 5631 5631 5631 5631 5630 5630 5629 5628 5628 5627 5626 5625 5624 5623 5623 5622 5621 5620 5619 5618 5617 5617 5616 5615 5615 5615
5720 5718 5716 5714 5712 5710 5708 5706 5704 5703 5701 5699 5695 5694 5697 5695 5688 5685 5686 5684 5682 5681 5679 5678 5676 5674 5673 5670 5669 5667 5665 5663 5662 5660 5659 5658 5657 5656 5655 5654 5653 5653 5651 5650 5649 5649 5648 5647 5646 5645 5644 5643 5642 5641 5640 5639 5638 5638 5637 5637 5636 5635 5635 5635 5634 5633 5631 5630 5629 5627 5627 5626 5626 5626 5625 5624 5623 5623 5622 5621 5620 5619 5618 5617 5617 5616 5615 5614 5613 5612 5611 5610 5610 5609 5608 5608 5608
5718 5716 5714 5713 5711 5709 5707 5704 5702 5701 5700 5698 5694 5691 5692 5694 5689 5684 5683 5683 5681 5678 5677 5676 5674 5672 5670 5668 5666 5664 5663 5661 5660 5658 5656 5655 5654 5653 5652 5651 5650 5649 5647 5647 5646 5645 5644 5643 5642 5641 5640 5639 5638 5637 5635 5634 5633 5633 5632 5631 5631 5630 5630 5630 5628 5626 5625 5624 5623 5622 5621 5620 5620 5619 5618 5617 5616 5616 5615 5614 5613 5612 5612 5611 5610 5609 5609 5608 5606 5605 5603 5603 5602 5601 5600 5601 5601
5717 5715 5713 5711 5709 5707 5705 5703 5700 5698 5698 5697 5694 5689 5688 5691 5689 5683 5681 5680 5679 5677 5675 5673 5672 5670 5668 5666 5664 5662 5661 5659 5658 5656 5655 5653 5652 5650 5649 5647 5646 5645 5644 5643 5642 5641 5640 5639 5638 5637 5636 5635 5633 5632 5630 5629 5628 5627 5626 5625 5625 5624 5624 5623 5621 5620 5619 5618 5617 5616 5615 5614 5613 5612 5611 5610 5609 5609 5608 5607 5606 5605 5605 5604 5603 5602 5602 5600 5599 5597 5596 5596 5595 5594 5593 5593 5592
5715 5713 5711 5709 5706 5705 5702 5700 5698 5695 5694 5695 5693 5688 5686 5687 5688 5684 5680 5678 5675 5673 5672 5671 5669 5667 5665 5664 5662 5660 5659 5657 5656 5654 5652 5651 5649 5647 5646 5644 5643 5641 5640 5639 5638 5637 5635 5634 5633 5632 5631 5630 5628 5627 5626 5624 5623 5622 5621 5620 5619 5619 5618 5616 5615 5613 5613 5612 5611 5611 5609 5608 5607 5606 5605 5604 5603 5602 5601 5600 5599 5598 5598 5597 5595 5595 5594 5592 5591 5590 5589 5588 5587 5586 5585 5584 5584
5713 5711 5708 5706 5704 5702 5700 5698 5696 5692 5691 5691 5690 5686 5683 5684 5687 5685 5679 5677 5674 5671 5669 5667 5665 5664 5662 5661 5659 5658 5656 5655 5653 5651 5649 5647 5646 5644 5642 5641 5639 5637 5635 5634 5633 5631 5630 5629 5628 5627 5626 5624 5623 5622 5620 5619 5618 5616 5615 5615 5614 5613 5611 5610 5608 5607 5607 5606 5605 5605 5603 5602 5601 5599 5598 5597 5596 5595 5594 5593 5592 5591 5590 5588 5588 5587 5586 5585 5584 5582 5581 5580 5579 5578 5577 5576 5575
5710 5708 5706 5703 5700 5698 5696 5694 5692 5688 5687 5687 5686 5683 5679 5679 5683 5684 5679 5676 5673 5670 5667 5665 5662 5660 5659 5657 5655 5654 5652 5651 5649 5647 5645 5643 5642 5640 5639 5637 5635 5633 5631 5629 5627 5626 5624 5623 5622 5621 5620 5618 5617 5616 5615 5613 5612 5611 5610 5609 5608 5606 5605 5603 5602 5601 5600 5599 5599 5598 5597 5595 5594 5593 5592 5591 5590 5588 5587 5585 5584 5583 5582 5581 5580 5579 5578 5577 5575 5574 5573 5572 5571 5570 5569 5568 5567
5708 5705 5703 5700 5697 5694 5691 5690 5688 5684 5682 5682 5680 5679 5675 5674 5678 5680 5678 5674 5672 5669 5666 5663 5660 5657 5655 5653 5651 5649 5648 5646 5644 5642 5641 5638 5637 5635 5634 5632 5630 5629 5627 5625 5623 5621 5619 5618 5616 5615 5613 5612 5610 5609 5608 5607 5606 5605 5604 5602 5601 5600 5598 5596 5596 5595 5593 5592 5592 5590 5589 5588 5587 5586 5585 5584 5583 5581 5579 5578 5576 5575 5574 5573 5572 5570 5569 5568 5566 5565 5564 5563 5562 5561 5560 5558 5558
5705 5702 5700 5696 5694 5689 5685 5685 5683 5679 5678 5675 5674 5672 5668 5669 5674 5676 5674 5672 5669 5666 5663 5660 5658 5654 5652 5649 5646 5644 5642 5640 5637 5636 5634 5633 5631 5629 5628 5627 5625 5624 5622 5620 5618 5616 5614 5612 5610 5608 5607 5605 5604 5602 5602 5600 5599 5598 5596 5595 5594 5592 5591 5590 5589 5588 5586 5585 5584 5582 5581 5580 5579 5578 5577 5576 5575 5572 5571 5570 5568 5567 5566 5565 5563 5562 5560 5559 5557 5556 5555 5554 5553 5552 5551 5549 5549
5701 5699 5697 5694 5691 5685 5680 5679 5676 5673 5672 5668 5666 5664 5659 5662 5668 5670 5669 5667 5664 5661 5657 5655 5653 5650 5648 5645 5642 5639 5636 5633 5631 5629 5628 5626 5624 5622 5620 5619 5618 5617 5615 5614 5612 5610 5608 5605 5603 5602 5599 5598 5596 5595 5594 5593 5592 5590 5588 5587 5586 5584 5583 5582 5580 5579 5578 5576 5575 5574 5573 5572 5571 5570 5569 5568 5566 5564 5563 5562 5560 5559 5557 5556 5554 5553 5551 5550 5548 5547 5546 5545 5544 5543 5541 5540 5540
5698 5696 5694 5691 5689 5683 5677 5675 5672 5669 5666 5661 5660 5658 5655 5657 5660 5662 5663 5661 5657 5653 5650 5649 5647 5645 5643 5641 5638 5634 5630 5627 5625 5623 5621 5619 5617 5614 5612 5610 5609 5608 5607 5606 5605 5603 5601 5599 5596 5595 5592 5590 5589 5588 5586 5585 5583 5582 5580 5579 5577 5576 5574 5573 5572 5570 5569 5567 5566 5565 5564 5563 5562 5561 5560 5559 5557 5555 5554 5553 5551 5550 5548 5547 5545 5543 5542 5540 5539 5537 5536 5535 5534 5533 5531 5530 5530
5694 5692 5689 5687 5685 5680 5675 5672 5668 5665 5660 5655 5654 5652 5651 5652 5652 5653 5655 5652 5648 5645 5643 5642 5642 5641 5639 5635 5633 5629 5625 5623 5619 5616 5614 5612 5609 5606 5603 5600 5598 5596 5596 5596 5596 5594 5593 5591 5589 5588 5585 5582 5581 5579 5578 5576 5575 5573 5571 5570 5568 5566 5565 5564 5563 5561 5560 5558 5556 5555 5554 5553 5552 5551 5550 5548 5547 5545 5545 5543 5542 5541 5539 5537 5536 5534 5532 5531 5529 5527 5526 5525 5524 5523 5520 5520 5519
5690 5687 5685 5681 5679 5676 5671 5666 5664 5661 5654 5649 5648 5646 5644 5645 5643 5641 5640 5639 5639 5639 5636 5634 5632 5633 5632 5629 5626 5623 5620 5617 5614 5610 5607 5604 5601 5598 5595 5592 5588 5585 5586 5586 5587 5586 5584 5582 5581 5580 5577 5574 5572 5570 5568 5567 5566 5564 5562 5561 5559 5557 5556 5555 5554 5552 5550 5548 5547 5546 5545 5543 5542 5541 5539 5538 5536 5535 5534 5533 5532 5531 5529 5527 5526 5524 5522 5520 5518 5517 5516 5515 5514 5512 5509 5510 5509
5686 5683 5680 5676 5673 5671 5666 5660 5657 5655 5648 5643 5643 5642 5638 5636 5635 5630 5626 5625 5627 5628 5628 5625 5622 5622 5622 5620 5618 5616 5613 5610 5607 5604 5601 5597 5594 5590 5587 5584 5581 5578 5577 5576 5576 5576 5575 5574 5572 5570 5568 5566 5563 5561 5559 5557 5555 5554 5553 5551 5549 5548 5546 5545 5544 5542 5540 5538 5537 5536 5534 5533 5532 5530 5529 5527 5526 5525 5524 5522 5522 5521 5519 5517 5516 5514 5512 5510 5507 5506 5506 5504 5503 5501 5498 5500 5499
5681 5678 5675 5672 5667 5665 5660 5654 5650 5647 5643 5638 5637 5637 5633 5629 5628 5623 5618 5619 5618 5615 5615 5613 5611 5610 5609 5609 5609 5607 5606 5603 5600 5596 5593 5590 5587 5583 5580 5576 5573 5571 5568 5566 5565 5565 5564 5563 5562 5560 5558 5556 5554 5552 5550 5548 5546 5544 5543 5541 5539 5538 5536 5535 5533 5531 5530 5529 5528 5526 5524 5523 5521 5519 5518 5516 5515 5514 5513 5512 5511 5510 5509 5507 5506 5504 5501 5499 5496 5496 5495 5494 5493 5489 5487 5489 5488
5676 5673 5670 5666 5662 5658 5653 5649 5644 5639 5636 5631 5628 5630 5628 5624 5622 5617 5613 5613 5611 5607 5604 5601 5598 5597 5596 5596 5596 5596 5596 5594 5592 5588 5584 5581 5578 5574 5571 5568 5565 5562 5560 5558 5555 5554 5553 5552 5551 5549 5546 5545 5543 5542 5540 5538 5536 5535 5533 5531 5529 5527 5526 5524 5523 5521 5520 5519 5517 5515 5513 5512 5510 5509 5507 5505 5504 5503 5502 5501 5500 5499 5498 5496 5495 5493 5490 5488 5485 5485 5484 5483 5481 5478 5476 5478 5476
5670 5667 5663 5659 5655 5650 5644 5642 5640 5634 5627 5623 5619 5618 5619 5618 5616 5612 5609 5608 5605 5601 5597 5593 5590 5587 5585 5584 5583 5582 5582 5580 5579 5578 5575 5572 5568 5565 5562 5558 5556 5553 5550 5548 5545 5543 5542 5541 5539 5537 5535 5534 5532 5531 5529 5527 5526 5524 5522 5520 5518 5516 5514 5513 5512 5510 5509 5508 5506 5503 5502 5500 5499 5498 5496 5494 5493 5492 5490 5489 5488 5487 5486 5484 5483 5481 5479 5476 5474 5474 5473 5471 5469 5466 5465 5466 5464
5663 5659 5655 5652 5647 5642 5636 5633 5634 5629 5621 5616 5611 5608 5609 5609 5607 5605 5604 5602 5598 5594 5590 5586 5584 5580 5578 5576 5573 5571 5570 5567 5566 5564 5562 5561 5558 5555 5552 5548 5545 5543 5539 5537 5534 5533 5531 5530 5528 5527 5525 5523 5521 5520 5518 5517 5515 5513 5511 5509 5506 5505 5503 5501 5500 5499 5497 5496 5494 5492 5490 5488 5488 5487 5484 5482 5482 5480 5477 5476 5475 5475 5474 5472 5471 5469 5467 5464 5462 5462 5460 5458 5456 5454 5453 5453 5451